Time,TemperatureF,DewpointF,PressureIn,WindDirection,WindDirectionDegrees,WindSpeedMPH,WindSpeedGustMPH,Humidity,HourlyPrecipIn,Conditions,Clouds,dailyrainin,SoftwareType,DateUTC
2013-03-01 00:00:00,34.9,33.7,29.62,NNW,328,5.4,8.7,95,0.00,,,0.00,VWS V14.01,2013-03-01 05:00:00,
2013-03-01 00:05:00,34.9,33.7,29.62,NNW,328,5.8,8.7,95,0.00,,,0.00,VWS V14.01,2013-03-01 05:05:00,
2013-03-01 00:10:00,34.9,33.7,29.62,NNW,328,4.0,8.7,95,0.00,,,0.00,VWS V14.01,2013-03-01 05:10:00,
2013-03-01 00:15:00,34.9,33.7,29.62,NNW,328,5.4,8.7,95,0.00,,,0.00,VWS V14.01,2013-03-01 05:15:00,
2013-03-01 00:25:00,34.9,33.7,29.62,NNW,328,5.8,10.5,95,0.00,,,0.00,VWS V14.01,2013-03-01 05:25:00,
2013-03-01 00:30:00,34.9,33.7,29.62,NNW,328,5.8,10.5,95,0.00,,,0.00,VWS V14.01,2013-03-01 05:30:00,
2013-03-01 00:35:00,34.9,33.7,29.62,NNW,328,8.1,10.5,95,0.00,,,0.00,VWS V14.01,2013-03-01 05:35:00,
2013-03-01 00:40:00,34.9,33.7,29.65,NNW,328,6.3,11.0,95,0.00,,,0.00,VWS V14.01,2013-03-01 05:40:00,
2013-03-01 00:50:00,34.9,33.7,29.65,NNW,328,4.9,11.0,95,0.00,,,0.00,VWS V14.01,2013-03-01 05:50:00,
2013-03-01 01:00:00,34.9,33.7,29.65,NNW,328,7.2,11.0,95,0.00,,,0.00,VWS V14.01,2013-03-01 06:00:00,
2013-03-01 01:05:00,34.9,33.7,29.65,NNW,328,6.3,10.1,95,0.00,,,0.00,VWS V14.01,2013-03-01 06:05:00,
2013-03-01 01:15:00,34.9,33.7,29.65,NNW,328,5.8,8.3,95,0.00,,,0.00,VWS V14.01,2013-03-01 06:15:00,
2013-03-01 01:20:00,34.9,33.7,29.65,NNW,328,5.4,8.3,95,0.00,,,0.00,VWS V14.01,2013-03-01 06:20:00,
2013-03-01 01:25:00,34.9,33.7,29.65,NNW,328,5.4,8.7,95,0.00,,,0.00,VWS V14.01,2013-03-01 06:25:00,
2013-03-01 01:35:00,34.9,33.7,29.65,NNW,328,5.4,8.7,95,0.00,,,0.00,VWS V14.01,2013-03-01 06:35:00,
2013-03-01 01:40:00,34.9,33.7,29.65,NNW,328,8.3,8.3,95,0.00,,,0.00,VWS V14.01,2013-03-01 06:40:00,
2013-03-01 01:50:00,34.9,33.7,29.65,NNW,328,5.8,8.3,95,0.00,,,0.00,VWS V14.01,2013-03-01 06:50:00,
2013-03-01 02:00:00,34.9,33.7,29.65,NNW,328,7.6,10.1,95,0.00,,,0.00,VWS V14.01,2013-03-01 07:00:00,
2013-03-01 02:05:00,34.9,33.7,29.65,NNW,328,4.0,10.1,95,0.00,,,0.00,VWS V14.01,2013-03-01 07:05:00,
2013-03-01 02:15:00,34.9,33.7,29.65,NNW,328,5.8,8.7,95,0.00,,,0.00,VWS V14.01,2013-03-01 07:15:00,
2013-03-01 02:25:00,34.9,33.7,29.65,NNW,328,5.4,9.6,95,0.00,,,0.00,VWS V14.01,2013-03-01 07:25:00,
2013-03-01 02:35:00,34.9,33.7,29.65,NNW,328,5.8,9.6,95,0.00,,,0.00,VWS V14.01,2013-03-01 07:35:00,
2013-03-01 02:45:00,34.9,33.7,29.65,NNW,328,8.1,8.1,95,0.00,,,0.00,VWS V14.01,2013-03-01 07:45:00,
2013-03-01 02:50:00,34.9,33.7,29.65,NNW,328,4.0,8.1,95,0.00,,,0.00,VWS V14.01,2013-03-01 07:50:00,
2013-03-01 02:55:00,34.9,33.7,29.65,NNW,328,4.0,8.1,95,0.00,,,0.00,VWS V14.01,2013-03-01 07:55:00,
2013-03-01 03:00:00,34.9,33.7,29.65,NNW,328,3.6,6.3,95,0.00,,,0.00,VWS V14.01,2013-03-01 08:00:00,
2013-03-01 03:10:00,34.9,33.7,29.65,NNW,328,7.6,8.1,95,0.00,,,0.00,VWS V14.01,2013-03-01 08:10:00,
2013-03-01 03:20:00,34.9,33.7,29.65,NNW,328,5.8,8.3,95,0.00,,,0.00,VWS V14.01,2013-03-01 08:20:00,
2013-03-01 03:25:00,34.9,33.7,29.65,NNW,328,5.4,8.3,95,0.00,,,0.00,VWS V14.01,2013-03-01 08:25:00,
2013-03-01 03:35:00,34.9,33.7,29.65,NNW,328,8.3,8.7,95,0.00,,,0.00,VWS V14.01,2013-03-01 08:35:00,
2013-03-01 03:40:00,34.9,33.7,29.65,NNW,328,8.3,8.7,95,0.00,,,0.00,VWS V14.01,2013-03-01 08:40:00,
2013-03-01 03:45:00,34.9,33.7,29.65,NNW,328,6.3,8.7,95,0.00,,,0.00,VWS V14.01,2013-03-01 08:45:00,
2013-03-01 03:50:00,34.9,33.7,29.65,NNW,328,5.8,8.7,95,0.00,,,0.00,VWS V14.01,2013-03-01 08:50:00,
2013-03-01 04:00:00,34.9,33.7,29.65,NNW,328,4.0,8.3,95,0.00,,,0.00,VWS V14.01,2013-03-01 09:00:00,
2013-03-01 04:10:00,34.9,33.7,29.65,NNW,328,5.4,8.7,95,0.00,,,0.00,VWS V14.01,2013-03-01 09:10:00,
2013-03-01 04:20:00,34.9,33.7,29.65,NNW,328,4.5,8.7,95,0.00,,,0.00,VWS V14.01,2013-03-01 09:20:00,
2013-03-01 04:30:00,34.9,33.7,29.65,NNW,328,4.0,8.7,95,0.00,,,0.00,VWS V14.01,2013-03-01 09:30:00,
2013-03-01 04:35:00,34.9,33.7,29.65,NNW,328,3.6,8.7,95,0.00,,,0.00,VWS V14.01,2013-03-01 09:35:00,
2013-03-01 04:45:00,34.9,33.7,29.65,NNW,328,5.4,8.1,95,0.00,,,0.00,VWS V14.01,2013-03-01 09:45:00,
2013-03-01 04:55:00,34.9,33.7,29.65,NNW,328,2.2,7.6,95,0.00,,,0.00,VWS V14.01,2013-03-01 09:55:00,
2013-03-01 05:05:00,34.9,33.7,29.65,NNW,328,3.6,7.6,95,0.00,,,0.00,VWS V14.01,2013-03-01 10:05:00,
2013-03-01 05:15:00,34.9,33.7,29.68,NNW,328,4.0,10.5,95,0.00,,,0.00,VWS V14.01,2013-03-01 10:15:00,
2013-03-01 05:20:00,34.9,33.7,29.68,NNW,328,6.3,11.0,95,0.00,,,0.00,VWS V14.01,2013-03-01 10:20:00,
2013-03-01 05:30:00,34.9,33.7,29.68,NNW,328,2.7,11.0,95,0.00,,,0.00,VWS V14.01,2013-03-01 10:30:00,
2013-03-01 05:40:00,34.9,33.7,29.68,NNW,328,8.7,10.5,95,0.00,,,0.00,VWS V14.01,2013-03-01 10:40:00,
2013-03-01 05:45:00,34.9,33.7,29.68,NNW,328,7.6,10.5,95,0.00,,,0.00,VWS V14.01,2013-03-01 10:45:00,
2013-03-01 05:55:00,34.9,33.7,29.68,NNW,328,3.1,10.5,95,0.00,,,0.00,VWS V14.01,2013-03-01 10:55:00,
2013-03-01 06:05:00,34.9,33.7,29.68,NNW,328,5.4,11.9,95,0.00,,,0.00,VWS V14.01,2013-03-01 11:05:00,
2013-03-01 06:15:00,34.9,33.7,29.68,NNW,328,3.1,10.5,95,0.00,,,0.00,VWS V14.01,2013-03-01 11:15:00,
2013-03-01 06:20:00,34.9,33.7,29.68,NNW,328,6.3,10.5,95,0.00,,,0.00,VWS V14.01,2013-03-01 11:20:00,
2013-03-01 06:30:00,34.9,33.7,29.68,NNW,328,9.2,9.2,95,0.00,,,0.00,VWS V14.01,2013-03-01 11:30:00,
2013-03-01 06:40:00,34.9,33.7,29.68,NNW,328,8.3,13.2,95,0.00,,,0.00,VWS V14.01,2013-03-01 11:40:00,
2013-03-01 06:50:00,34.9,33.7,29.68,NNW,328,5.4,11.0,95,0.00,,,0.00,VWS V14.01,2013-03-01 11:50:00,
2013-03-01 07:00:00,34.9,33.7,29.68,NNW,328,9.6,11.0,95,0.00,,,0.00,VWS V14.01,2013-03-01 12:00:00,
2013-03-01 07:05:00,34.9,33.7,29.68,NNW,328,7.2,11.0,95,0.00,,,0.00,VWS V14.01,2013-03-01 12:05:00,
2013-03-01 07:15:00,34.9,33.7,29.71,NNW,328,5.8,10.5,95,0.00,,,0.00,VWS V14.01,2013-03-01 12:15:00,
2013-03-01 07:25:00,34.9,33.7,29.71,NNW,328,3.6,10.1,95,0.00,,,0.00,VWS V14.01,2013-03-01 12:25:00,
2013-03-01 07:30:00,34.9,33.7,29.71,NNW,328,7.6,10.5,95,0.00,,,0.00,VWS V14.01,2013-03-01 12:30:00,
2013-03-01 07:40:00,34.9,33.7,29.71,NNW,328,11.0,11.0,95,0.00,,,0.00,VWS V14.01,2013-03-01 12:40:00,
2013-03-01 07:50:00,34.9,33.7,29.71,NNW,328,8.3,13.2,95,0.00,,,0.00,VWS V14.01,2013-03-01 12:50:00,
2013-03-01 08:00:00,34.9,33.7,29.71,NNW,328,6.7,14.5,95,0.00,,,0.00,VWS V14.01,2013-03-01 13:00:00,
2013-03-01 08:05:00,34.9,33.7,29.71,NNW,328,8.7,14.5,95,0.00,,,0.00,VWS V14.01,2013-03-01 13:05:00,
2013-03-01 08:15:00,34.9,33.7,29.71,NNW,328,8.1,11.0,95,0.00,,,0.00,VWS V14.01,2013-03-01 13:15:00,
2013-03-01 08:25:00,34.9,33.7,29.71,NNW,328,5.8,10.1,95,0.00,,,0.00,VWS V14.01,2013-03-01 13:25:00,
2013-03-01 08:30:00,34.9,33.7,29.71,NNW,328,7.6,8.7,95,0.00,,,0.00,VWS V14.01,2013-03-01 13:30:00,
2013-03-01 08:40:00,34.9,33.7,29.71,NNW,328,8.3,10.1,95,0.00,,,0.00,VWS V14.01,2013-03-01 13:40:00,
2013-03-01 08:50:00,34.9,33.7,29.71,NNW,328,10.5,11.0,95,0.00,,,0.00,VWS V14.01,2013-03-01 13:50:00,
2013-03-01 09:00:00,34.9,33.7,29.71,NNW,328,5.8,11.0,95,0.00,,,0.00,VWS V14.01,2013-03-01 14:00:00,
2013-03-01 09:10:00,34.9,33.7,29.71,NNW,328,5.8,11.0,95,0.00,,,0.00,VWS V14.01,2013-03-01 14:10:00,
2013-03-01 09:15:00,34.9,33.7,29.71,NNW,328,8.3,12.3,95,0.00,,,0.00,VWS V14.01,2013-03-01 14:15:00,
2013-03-01 09:25:00,34.9,33.7,29.71,NNW,328,5.4,12.3,95,0.00,,,0.00,VWS V14.01,2013-03-01 14:25:00,
2013-03-01 09:35:00,34.9,33.7,29.71,NNW,328,8.7,11.0,95,0.00,,,0.00,VWS V14.01,2013-03-01 14:35:00,
2013-03-01 09:45:00,34.9,33.7,29.74,NNW,328,6.3,12.3,95,0.00,,,0.00,VWS V14.01,2013-03-01 14:45:00,
2013-03-01 09:50:00,34.9,33.7,29.74,NNW,328,5.4,12.3,95,0.00,,,0.00,VWS V14.01,2013-03-01 14:50:00,
2013-03-01 10:00:00,34.9,33.7,29.74,NNW,328,6.3,12.3,95,0.00,,,0.00,VWS V14.01,2013-03-01 15:00:00,
2013-03-01 10:05:00,34.9,33.7,29.74,NNW,328,8.3,11.0,95,0.00,,,0.00,VWS V14.01,2013-03-01 15:05:00,
2013-03-01 10:10:00,34.9,33.7,29.74,NNW,328,6.3,14.1,95,0.00,,,0.00,VWS V14.01,2013-03-01 15:10:00,
2013-03-01 10:20:00,34.9,33.7,29.74,NNW,328,4.9,14.1,95,0.00,,,0.00,VWS V14.01,2013-03-01 15:20:00,
2013-03-01 10:25:00,34.9,33.7,29.74,NNW,328,7.6,11.0,95,0.00,,,0.00,VWS V14.01,2013-03-01 15:25:00,
2013-03-01 10:35:00,34.9,33.7,29.74,NNW,328,6.3,11.0,95,0.00,,,0.00,VWS V14.01,2013-03-01 15:35:00,
2013-03-01 10:45:00,34.9,33.7,29.74,NNW,328,5.8,11.0,95,0.00,,,0.00,VWS V14.01,2013-03-01 15:45:00,
2013-03-01 10:50:00,34.9,33.7,29.74,NNW,328,6.3,10.1,95,0.00,,,0.00,VWS V14.01,2013-03-01 15:50:00,
2013-03-01 11:00:00,34.9,33.7,29.74,NNW,328,7.2,9.6,95,0.00,,,0.00,VWS V14.01,2013-03-01 16:00:00,
2013-03-01 11:10:00,34.9,33.7,29.74,NNW,328,8.3,10.1,95,0.00,,,0.00,VWS V14.01,2013-03-01 16:10:00,
2013-03-01 11:20:00,34.9,33.7,29.74,NNW,328,8.7,8.7,95,0.00,,,0.00,VWS V14.01,2013-03-01 16:20:00,
2013-03-01 11:30:00,34.9,33.7,29.74,NNW,328,8.1,8.7,95,0.00,,,0.00,VWS V14.01,2013-03-01 16:30:00,
2013-03-01 11:35:00,34.9,33.7,29.74,NNW,328,5.4,8.7,95,0.00,,,0.00,VWS V14.01,2013-03-01 16:35:00,
2013-03-01 11:40:00,34.9,33.7,29.74,NNW,328,6.3,8.1,95,0.00,,,0.00,VWS V14.01,2013-03-01 16:40:00,
2013-03-01 11:45:00,34.9,33.7,29.74,NNW,328,5.8,10.1,95,0.00,,,0.00,VWS V14.01,2013-03-01 16:45:00,
2013-03-01 11:55:00,34.9,33.7,29.74,NNW,328,5.4,10.1,95,0.00,,,0.00,VWS V14.01,2013-03-01 16:55:00,
2013-03-01 12:05:00,34.9,33.7,29.74,NNW,328,6.7,8.1,95,0.00,,,0.00,VWS V14.01,2013-03-01 17:05:00,
2013-03-01 12:10:00,34.9,33.7,29.74,NNW,328,4.5,12.8,95,0.00,,,0.00,VWS V14.01,2013-03-01 17:10:00,
2013-03-01 12:20:00,34.9,33.7,29.74,NNW,328,6.3,12.8,95,0.00,,,0.00,VWS V14.01,2013-03-01 17:20:00,
2013-03-01 12:25:00,34.9,33.7,29.74,NNW,328,7.6,10.5,95,0.00,,,0.00,VWS V14.01,2013-03-01 17:25:00,
2013-03-01 12:35:00,34.9,33.7,29.74,NNW,328,6.7,10.1,95,0.00,,,0.00,VWS V14.01,2013-03-01 17:35:00,
2013-03-01 12:45:00,34.9,33.7,29.77,NNW,328,5.4,8.7,95,0.00,,,0.00,VWS V14.01,2013-03-01 17:45:00,
2013-03-01 12:55:00,34.9,33.7,29.74,NNW,328,11.0,12.8,95,0.00,,,0.00,VWS V14.01,2013-03-01 17:55:00,
2013-03-01 13:05:00,34.9,33.7,29.74,NNW,327,9.2,13.2,95,0.00,,,0.00,VWS V14.01,2013-03-01 18:05:00,
2013-03-01 13:10:00,34.9,33.7,29.74,NNW,327,7.6,13.2,95,0.00,,,0.00,VWS V14.01,2013-03-01 18:10:00,
2013-03-01 13:20:00,34.9,33.7,29.74,NNW,327,8.3,13.6,95,0.00,,,0.00,VWS V14.01,2013-03-01 18:20:00,
2013-03-01 13:30:00,34.9,33.7,29.74,NNW,327,7.6,13.2,95,0.00,,,0.00,VWS V14.01,2013-03-01 18:30:00,
2013-03-01 13:40:00,34.9,33.7,29.77,NNW,327,8.1,12.3,95,0.00,,,0.00,VWS V14.01,2013-03-01 18:40:00,
2013-03-01 13:45:00,34.9,33.7,29.77,NNW,327,8.3,12.3,95,0.00,,,0.00,VWS V14.01,2013-03-01 18:45:00,
2013-03-01 13:55:00,34.9,33.7,29.77,NNW,327,6.3,12.3,95,0.00,,,0.00,VWS V14.01,2013-03-01 18:55:00,
2013-03-01 14:00:00,34.9,33.7,29.77,NNW,327,5.4,10.1,95,0.00,,,0.00,VWS V14.01,2013-03-01 19:00:00,
2013-03-01 14:05:00,34.9,33.7,29.77,NNW,327,10.1,10.5,95,0.00,,,0.00,VWS V14.01,2013-03-01 19:05:00,
2013-03-01 14:15:00,34.9,33.7,29.77,NNW,327,8.1,12.3,95,0.00,,,0.00,VWS V14.01,2013-03-01 19:15:00,
2013-03-01 14:20:00,34.9,33.7,29.77,NNW,327,5.8,15.0,95,0.00,,,0.00,VWS V14.01,2013-03-01 19:20:00,
2013-03-01 14:30:00,34.9,33.7,29.77,NNW,327,8.7,15.0,95,0.00,,,0.00,VWS V14.01,2013-03-01 19:30:00,
2013-03-01 14:40:00,34.9,33.7,29.77,NNW,327,8.3,17.0,95,0.00,,,0.00,VWS V14.01,2013-03-01 19:40:00,
2013-03-01 14:45:00,34.9,33.7,29.77,NNW,327,12.3,17.0,95,0.00,,,0.00,VWS V14.01,2013-03-01 19:45:00,
2013-03-01 14:55:00,34.9,33.7,29.77,NNW,327,8.3,12.3,95,0.00,,,0.00,VWS V14.01,2013-03-01 19:55:00,
2013-03-01 15:05:00,34.9,33.7,29.77,NNW,327,8.7,15.9,95,0.00,,,0.00,VWS V14.01,2013-03-01 20:05:00,
2013-03-01 15:15:00,34.9,33.7,29.77,NNW,327,7.2,15.9,95,0.00,,,0.00,VWS V14.01,2013-03-01 20:15:00,
2013-03-01 15:25:00,34.9,33.7,29.77,NNW,327,6.3,15.4,95,0.00,,,0.00,VWS V14.01,2013-03-01 20:25:00,
2013-03-01 15:30:00,34.9,33.7,29.77,NNW,327,5.4,15.4,95,0.00,,,0.00,VWS V14.01,2013-03-01 20:30:00,
2013-03-01 15:35:00,34.9,33.7,29.77,NNW,327,8.7,15.4,95,0.00,,,0.00,VWS V14.01,2013-03-01 20:35:00,
2013-03-01 15:40:00,34.9,33.7,29.77,NNW,327,8.1,13.6,95,0.00,,,0.00,VWS V14.01,2013-03-01 20:40:00,
2013-03-01 15:50:00,34.9,33.7,29.77,NNW,327,9.6,14.5,95,0.00,,,0.00,VWS V14.01,2013-03-01 20:50:00,
2013-03-01 16:00:00,34.9,33.7,29.77,NNW,327,5.8,11.0,95,0.00,,,0.00,VWS V14.01,2013-03-01 21:00:00,
2013-03-01 16:05:00,34.9,33.7,29.77,NNW,327,8.7,11.0,95,0.00,,,0.00,VWS V14.01,2013-03-01 21:05:00,
2013-03-01 16:15:00,34.9,33.7,29.77,NNW,327,8.7,14.5,95,0.00,,,0.00,VWS V14.01,2013-03-01 21:15:00,
2013-03-01 16:20:00,34.9,33.7,29.77,NNW,327,5.4,14.5,95,0.00,,,0.00,VWS V14.01,2013-03-01 21:20:00,
2013-03-01 16:25:00,34.9,33.7,29.77,NNW,327,11.0,13.2,95,0.00,,,0.00,VWS V14.01,2013-03-01 21:25:00,
2013-03-01 16:30:00,34.9,33.7,29.77,NNW,327,9.6,13.2,95,0.00,,,0.00,VWS V14.01,2013-03-01 21:30:00,
2013-03-01 16:40:00,34.9,33.7,29.77,NNW,327,10.1,13.2,95,0.00,,,0.00,VWS V14.01,2013-03-01 21:40:00,
2013-03-01 16:50:00,34.9,33.7,29.77,NNW,327,10.5,17.4,95,0.00,,,0.00,VWS V14.01,2013-03-01 21:50:00,
2013-03-01 17:00:00,34.9,33.7,29.77,NNW,327,12.8,15.4,95,0.00,,,0.00,VWS V14.01,2013-03-01 22:00:00,
2013-03-01 17:10:00,34.9,33.7,29.80,NNW,327,8.7,15.4,95,0.00,,,0.00,VWS V14.01,2013-03-01 22:10:00,
2013-03-01 17:15:00,34.9,33.7,29.80,NNW,327,10.1,15.4,95,0.00,,,0.00,VWS V14.01,2013-03-01 22:15:00,
2013-03-01 17:25:00,34.9,33.7,29.80,NNW,327,10.1,15.0,95,0.00,,,0.00,VWS V14.01,2013-03-01 22:25:00,
2013-03-01 17:35:00,34.9,33.7,29.80,NNW,327,8.1,15.4,95,0.00,,,0.00,VWS V14.01,2013-03-01 22:35:00,
2013-03-01 17:45:00,34.9,33.7,29.80,NNW,327,6.3,13.2,95,0.00,,,0.00,VWS V14.01,2013-03-01 22:45:00,
2013-03-01 17:50:00,34.9,33.7,29.80,NNW,327,6.3,12.8,95,0.00,,,0.00,VWS V14.01,2013-03-01 22:50:00,
2013-03-01 17:55:00,34.9,33.7,29.80,NNW,327,5.8,12.8,95,0.00,,,0.00,VWS V14.01,2013-03-01 22:55:00,
2013-03-01 18:00:00,34.9,33.7,29.80,NNW,327,5.4,12.8,95,0.00,,,0.00,VWS V14.01,2013-03-01 23:00:00,
2013-03-01 18:10:00,34.9,33.7,29.80,NNW,327,7.6,11.0,95,0.00,,,0.00,VWS V14.01,2013-03-01 23:10:00,
2013-03-01 18:20:00,34.9,33.7,29.80,NNW,327,5.4,10.1,95,0.00,,,0.00,VWS V14.01,2013-03-01 23:20:00,
2013-03-01 18:25:00,34.9,33.7,29.80,NNW,327,7.6,10.1,95,0.00,,,0.00,VWS V14.01,2013-03-01 23:25:00,
2013-03-01 18:35:00,34.9,33.7,29.80,NNW,327,6.3,12.3,95,0.00,,,0.00,VWS V14.01,2013-03-01 23:35:00,
2013-03-01 18:45:00,34.9,33.7,29.80,NNW,327,5.8,15.9,95,0.00,,,0.00,VWS V14.01,2013-03-01 23:45:00,
2013-03-01 18:50:00,34.9,33.7,29.80,NNW,327,7.6,15.9,95,0.00,,,0.00,VWS V14.01,2013-03-01 23:50:00,
2013-03-01 19:00:00,34.9,33.7,29.80,NNW,327,5.4,11.0,95,0.00,,,0.00,VWS V14.01,2013-03-02 00:00:00,
2013-03-01 19:10:00,34.9,33.7,29.83,NNW,327,8.1,10.5,95,0.00,,,0.00,VWS V14.01,2013-03-02 00:10:00,
2013-03-01 19:20:00,34.9,33.7,29.83,NNW,327,6.3,8.7,95,0.00,,,0.00,VWS V14.01,2013-03-02 00:20:00,
2013-03-01 19:30:00,34.9,33.7,29.80,NNW,327,3.6,8.7,95,0.00,,,0.00,VWS V14.01,2013-03-02 00:30:00,
2013-03-01 19:35:00,34.9,33.7,29.80,NNW,327,5.8,11.0,95,0.00,,,0.00,VWS V14.01,2013-03-02 00:35:00,
2013-03-01 19:45:00,34.9,33.7,29.80,NNW,327,0.0,11.0,95,0.00,,,0.00,VWS V14.01,2013-03-02 00:45:00,
2013-03-01 19:55:00,34.9,33.7,29.83,NNW,327,0.0,8.7,95,0.00,,,0.00,VWS V14.01,2013-03-02 00:55:00,
2013-03-01 20:05:00,34.9,33.7,29.83,NNW,327,2.2,6.3,95,0.00,,,0.00,VWS V14.01,2013-03-02 01:05:00,
2013-03-01 20:10:00,34.9,33.7,29.80,NNW,327,2.2,5.4,95,0.00,,,0.00,VWS V14.01,2013-03-02 01:10:00,
2013-03-01 20:20:00,34.9,33.7,29.80,NNW,327,3.1,5.4,95,0.00,,,0.00,VWS V14.01,2013-03-02 01:20:00,
2013-03-01 20:30:00,34.9,33.7,29.80,NNW,327,5.8,8.7,95,0.00,,,0.00,VWS V14.01,2013-03-02 01:30:00,
2013-03-01 20:40:00,34.9,33.7,29.83,NNW,327,2.2,8.7,95,0.00,,,0.00,VWS V14.01,2013-03-02 01:40:00,
2013-03-01 20:45:00,34.9,33.7,29.83,NNW,327,4.0,7.6,95,0.00,,,0.00,VWS V14.01,2013-03-02 01:45:00,
2013-03-01 20:55:00,34.9,33.7,29.83,NNW,327,4.0,4.9,95,0.00,,,0.00,VWS V14.01,2013-03-02 01:55:00,
2013-03-01 21:05:00,34.9,33.7,29.83,NNW,327,2.7,6.3,95,0.00,,,0.00,VWS V14.01,2013-03-02 02:05:00,
2013-03-01 21:10:00,34.9,33.7,29.83,NNW,327,3.1,6.3,95,0.00,,,0.00,VWS V14.01,2013-03-02 02:10:00,
2013-03-01 21:20:00,34.9,33.7,29.83,NNW,327,5.8,7.6,95,0.00,,,0.00,VWS V14.01,2013-03-02 02:20:00,
2013-03-01 21:30:00,34.9,33.7,29.83,NNW,327,2.7,7.6,95,0.00,,,0.00,VWS V14.01,2013-03-02 02:30:00,
2013-03-01 21:40:00,34.9,33.7,29.83,NNW,327,4.9,6.7,95,0.00,,,0.00,VWS V14.01,2013-03-02 02:40:00,
2013-03-01 21:50:00,34.9,33.7,29.83,NNW,327,4.0,6.3,95,0.00,,,0.00,VWS V14.01,2013-03-02 02:50:00,
2013-03-01 21:55:00,34.9,33.7,29.83,NNW,327,4.0,8.3,95,0.00,,,0.00,VWS V14.01,2013-03-02 02:55:00,
2013-03-01 22:05:00,34.9,33.7,29.83,NNW,327,4.0,8.3,95,0.00,,,0.00,VWS V14.01,2013-03-02 03:05:00,
2013-03-01 22:15:00,34.9,33.7,29.83,NNW,327,0.0,6.3,95,0.00,,,0.00,VWS V14.01,2013-03-02 03:15:00,
2013-03-01 22:25:00,34.9,33.7,29.83,NNW,327,2.7,4.9,95,0.00,,,0.00,VWS V14.01,2013-03-02 03:25:00,
2013-03-01 22:30:00,34.9,33.7,29.83,NNW,327,0.0,6.3,95,0.00,,,0.00,VWS V14.01,2013-03-02 03:30:00,
2013-03-01 22:40:00,34.9,33.7,29.83,NNW,327,5.4,8.3,95,0.00,,,0.00,VWS V14.01,2013-03-02 03:40:00,
2013-03-01 22:45:00,34.9,33.7,29.83,NNW,327,2.7,8.3,95,0.00,,,0.00,VWS V14.01,2013-03-02 03:45:00,
2013-03-01 22:50:00,34.9,33.7,29.83,NNW,327,6.7,8.1,95,0.00,,,0.00,VWS V14.01,2013-03-02 03:50:00,
2013-03-01 23:00:00,34.9,33.7,29.83,NNW,327,3.6,8.3,95,0.00,,,0.00,VWS V14.01,2013-03-02 04:00:00,
2013-03-01 23:05:00,34.9,33.7,29.83,NNW,327,6.3,8.3,95,0.00,,,0.00,VWS V14.01,2013-03-02 04:05:00,
2013-03-01 23:15:00,34.9,33.7,29.83,NNW,327,2.7,6.3,95,0.00,,,0.00,VWS V14.01,2013-03-02 04:15:00,
2013-03-01 23:25:00,34.9,33.7,29.80,NNW,327,3.6,5.4,95,0.00,,,0.00,VWS V14.01,2013-03-02 04:25:00,
2013-03-01 23:30:00,34.9,33.7,29.80,NNW,327,6.7,8.3,95,0.00,,,0.00,VWS V14.01,2013-03-02 04:30:00,
2013-03-01 23:40:00,34.9,33.7,29.80,NNW,327,6.7,10.1,95,0.00,,,0.00,VWS V14.01,2013-03-02 04:40:00,
2013-03-01 23:50:00,34.9,33.7,29.80,NNW,327,4.0,10.1,95,0.00,,,0.00,VWS V14.01,2013-03-02 04:50:00,